TimeEST,TemperatureF,Dew PointF,Humidity,Sea Level PressureIn,VisibilityMPH,Wind Direction,Wind SpeedMPH,Gust SpeedMPH,PrecipitationIn,Events,Conditions,WindDirDegrees,DateUTC
12:53 AM,66.0,64.0,93,30.10,10.0,NNW,4.6,-,N/A,,Partly Cloudy,330,2013-01-20 05:53:00
1:53 AM,64.9,64.0,97,30.09,6.0,NNW,3.5,-,N/A,,Scattered Clouds,330,2013-01-20 06:53:00
2:00 AM,64.4,64.4,100,30.09,5.0,NW,3.5,-,N/A,,Mostly Cloudy,320,2013-01-20 07:00:00
2:06 AM,64.4,64.4,100,30.08,1.8,NNW,3.5,-,N/A,,Mostly Cloudy,340,2013-01-20 07:06:00
2:16 AM,64.4,64.4,100,30.08,0.5,NNW,3.5,-,N/A,Fog,Fog,330,2013-01-20 07:16:00
2:19 AM,64.4,64.4,100,30.08,0.2,NNW,3.5,-,N/A,Fog,Fog,340,2013-01-20 07:19:00
2:53 AM,64.0,64.0,100,30.07,0.2,Calm,Calm,-,N/A,Fog,Fog,0,2013-01-20 07:53:00
3:24 AM,64.4,62.6,94,30.07,0.5,WNW,3.5,-,N/A,Fog,Fog,300,2013-01-20 08:24:00
3:42 AM,64.4,62.6,94,30.07,0.5,NW,4.6,-,N/A,Fog,Fog,320,2013-01-20 08:42:00
3:53 AM,64.0,63.0,96,30.07,0.5,NNW,4.6,-,N/A,Fog,Fog,330,2013-01-20 08:53:00
4:25 AM,64.4,64.4,100,30.07,0.5,Calm,Calm,-,N/A,Fog,Fog,0,2013-01-20 09:25:00
4:46 AM,64.4,64.4,100,30.08,2.0,Calm,Calm,-,N/A,,Overcast,0,2013-01-20 09:46:00
4:53 AM,64.0,64.0,100,30.07,2.0,Calm,Calm,-,N/A,,Overcast,0,2013-01-20 09:53:00
5:10 AM,64.4,64.4,100,30.07,3.0,Calm,Calm,-,N/A,,Overcast,0,2013-01-20 10:10:00
5:18 AM,64.4,62.6,94,30.07,8.0,Calm,Calm,-,N/A,,Mostly Cloudy,0,2013-01-20 10:18:00
5:53 AM,64.9,64.0,97,30.09,10.0,West,3.5,-,N/A,,Mostly Cloudy,260,2013-01-20 10:53:00
6:53 AM,64.9,64.0,97,30.10,5.0,NW,4.6,-,N/A,,Overcast,310,2013-01-20 11:53:00
6:56 AM,64.4,64.4,100,30.10,0.5,NW,4.6,-,N/A,,Overcast,310,2013-01-20 11:56:00
7:24 AM,64.4,64.4,100,30.11,0.5,Calm,Calm,-,N/A,Fog,Fog,0,2013-01-20 12:24:00
7:29 AM,64.4,64.4,100,30.11,1.0,NNW,3.5,-,N/A,,Overcast,340,2013-01-20 12:29:00
7:38 AM,64.4,64.4,100,30.11,1.0,NNW,3.5,-,N/A,,Overcast,340,2013-01-20 12:38:00
7:53 AM,64.9,64.9,100,30.12,1.5,North,4.6,-,N/A,,Mostly Cloudy,350,2013-01-20 12:53:00
8:03 AM,66.2,64.4,94,30.12,4.0,NNW,4.6,-,N/A,,Mostly Cloudy,340,2013-01-20 13:03:00
8:53 AM,66.9,66.0,97,30.14,10.0,Calm,Calm,-,N/A,,Mostly Cloudy,0,2013-01-20 13:53:00
9:53 AM,72.0,66.9,84,30.15,10.0,Calm,Calm,-,N/A,,Scattered Clouds,0,2013-01-20 14:53:00
10:53 AM,75.9,66.9,74,30.13,10.0,Variable,3.5,-,N/A,,Partly Cloudy,0,2013-01-20 15:53:00
11:53 AM,78.1,64.0,62,30.10,10.0,Calm,Calm,-,N/A,,Partly Cloudy,0,2013-01-20 16:53:00
12:53 PM,78.1,66.0,66,30.05,10.0,ESE,4.6,-,N/A,,Partly Cloudy,110,2013-01-20 17:53:00
1:53 PM,79.0,64.9,62,30.03,10.0,ENE,6.9,-,N/A,,Partly Cloudy,70,2013-01-20 18:53:00
2:53 PM,77.0,64.9,66,30.02,10.0,East,9.2,-,N/A,,Mostly Cloudy,100,2013-01-20 19:53:00
3:53 PM,75.9,66.0,71,30.02,10.0,East,8.1,-,N/A,,Mostly Cloudy,80,2013-01-20 20:53:00
4:53 PM,75.9,66.0,71,30.04,10.0,ENE,9.2,-,N/A,,Mostly Cloudy,60,2013-01-20 21:53:00
5:53 PM,75.0,66.0,73,30.04,10.0,East,8.1,-,N/A,,Mostly Cloudy,90,2013-01-20 22:53:00
6:53 PM,73.9,66.0,76,30.04,10.0,East,6.9,-,N/A,,Scattered Clouds,90,2013-01-20 23:53:00
7:53 PM,73.0,64.9,76,30.04,10.0,Calm,Calm,-,N/A,,Scattered Clouds,0,2013-01-21 00:53:00
8:53 PM,73.0,66.0,79,30.06,10.0,Calm,Calm,-,N/A,,Mostly Cloudy,0,2013-01-21 01:53:00
9:53 PM,72.0,66.9,84,30.06,10.0,NNW,5.8,-,N/A,,Scattered Clouds,330,2013-01-21 02:53:00
10:53 PM,70.0,66.9,90,30.06,10.0,NNW,4.6,-,N/A,,Scattered Clouds,330,2013-01-21 03:53:00
11:53 PM,69.1,66.0,90,30.05,10.0,NNW,3.5,-,N/A,,Scattered Clouds,340,2013-01-21 04:53:00